星链-5084 (STARLINK-5084 )

导读

STARLINK-5084是美国太空探索技术公司(SpaceX)星链互联网卫星星座中的一员,于2022年12月28日发射入轨,属于星链项目第二批组网卫星。星链系统旨在为全球提供低成本、高速率的卫星互联网接入服务,该卫星承担部分全球网络覆盖任务,服务地面用户通信与互联网接入需求。

Basic Information
目录编号:
54851
目录名称:
STARLINK-5084
国际标识:
2022-177AH
轨道中心:
EARTH
卫星名称:
星链-5084
卫星全名:
星链-5084 (STARLINK-5084 )
卫星状态:
在轨 (已飞行1347 天)
发射日期:
2022-12-28 UTC
国别 :
美国 (US)
星等 :
--
Orbit Information
数据来源 国际轨道数据 AOE轨道数据
星历时间 2026-09-05T12:10:12+0800
6小时前
查看轨道信息
2026-09-03T23:00:00+0800
1天前
查看轨道信息
半长轴 6861.185km 6861.26km
偏心率 0.0001319 0.000001
轨道倾角 43.003° 43.000°
近地点辐角 270.683° 347.729°
升交点赤经 187.675° 196.424°
平近点角 89.387° 125.325°
近地点 482.143km 483.116km
远地点 483.953km 483.13km
周期 94.267分钟 94.268分钟
每日圈数 15.275804 15.275555
Detailed Information
固有亮度:
5
最大亮度:
2.5
卫星平台:
Starlink v1.5
覆盖范围:
全球
运营商:
太空探索技术公司
运营商所在国:
美国
制造商(研发单位):
太空探索技术公司
制造商所在国:
美国
使用方式:
暂无
Satellite Introduction
星链(Starlink)计划是由太空探索技术公司(SpaceX)提出的一个巨型低轨卫星互联网星座项目,计划在2019年至2024年间在太空搭建由约1.2万颗卫星组成的“星链”网络,其中1584颗将部署在地球上空550千米处的近地轨道,并从2020年开始工作。该卫星仍在工作。
2D Orbit Map
3D Orbit Map
Orbit Altitude Analysis Chart
Orbit Inclination Analysis Chart
Orbit Comprehensive Analysis Chart
View Comprehensive Chart
Conjunction Data List
Event ID Objects TCA Miss Dist (km) Collision Risk Probability Collision Risk Index (CRI) Action
CDM_260906-062304-649505-485121
SALSAT (46495)
2026-09-06T
06:23:10+0000
1.318 km
极远距离
8.132625E-6 低风险 0.53
CDM_260906-055705-485106-442621
2026-09-06T
05:57:47+0000
1.486 km
极远距离
6.160747E-6 低风险 0.51
CDM_260907-214705-485106-438321
2026-09-07T
21:47:05+0000
1.656 km
极远距离
2.443284E-6 低风险 0.43